Weather History for Grand Rapids, MN

Change the Weather History Date:

Thursday, October 28, 2010

  Actual Average Record
Temperature  
Mean Temperature 32 °F -  
Max Temperature 35 °F 50 °F 76 °F (1983)
Min Temperature 30 °F 29 °F -3 °F (1942)
Degree Days  
Heating Degree Days 32    
Moisture  
Dew Point 23 °F    
Average Humidity 65    
Maximum Humidity 81    
Minimum Humidity 56    
Precipitation  
Precipitation 0.00 in - - ()
Sea Level Pressure  
Sea Level Pressure 30.04 in    
Wind  
Wind Speed 20 mph (WNW)    
Max Wind Speed 28 mph    
Max Gust Speed 38 mph    
Visibility 10 miles    
Events      
Averages and records for this station are not official NWS values.
T = Trace of Precipitation, MM = Missing Value Source: NWS Daily Summary

Daily Weather History Graph

Daily Weather History Graph

Search for Another Location

Airport:

Trip Planner

Search our weather history database for the weather conditions in past years. The results will help you decide how hot, cold, wet, or windy it might be!

Date:

Astronomy

Oct. 28, 2010 Rise Set
Actual Time 7:51 AM CDT 6:03 PM CDT
Civil Twilight 7:19 AM CDT 6:35 PM CDT
Nautical Twilight 6:43 AM CDT 7:11 PM CDT
Astronomical Twilight 6:08 AM CDT 7:46 PM CDT
Moon 10:24 PM CDT (10/28) 1:24 PM CDT (10/28)
Length of Visible Light 11h 15m
Length of Day
10h 12m
Waning Gibbous, 70% of the Moon is Illuminated
Oct 28
Waning Gibbous
Oct 30
Last Quarter
Nov 5
New
Nov 13
First Quarter
Nov 21
Full

Hourly Weather History & Observations

Time (CDT) Temp. Windchill Dew Point Humidity Pressure Visibility Wind Dir Wind Speed Gust Speed Precip Events Conditions
12:15 AM 35.6 °F 25.2 °F 30.2 °F 81% 29.69 in 10.0 mi WNW 18.4 mph 31.1 mph N/A   Overcast
12:35 AM 35.6 °F 23.2 °F 28.4 °F 75% 29.71 in 10.0 mi NW 26.5 mph 34.5 mph N/A   Overcast
12:55 AM 35.6 °F 23.4 °F 28.4 °F 75% 29.73 in 10.0 mi NW 25.3 mph 34.5 mph N/A   Overcast
1:15 AM 35.6 °F 23.4 °F 28.4 °F 75% 29.74 in 10.0 mi WNW 25.3 mph 33.4 mph N/A   Overcast
1:35 AM 35.6 °F 24.2 °F 28.4 °F 75% 29.76 in 10.0 mi WNW 21.9 mph 33.4 mph N/A   Overcast
1:55 AM 35.6 °F 23.0 °F 26.6 °F 70% 29.77 in 10.0 mi NW 27.6 mph 33.4 mph N/A   Overcast
2:15 AM - - - N/A% 29.79 in 10.0 mi NW 21.9 mph 32.2 mph N/A   Overcast
2:35 AM - - - N/A% 29.80 in 10.0 mi WNW 23.0 mph 38.0 mph N/A   Overcast
2:55 AM 35.6 °F 24.8 °F 26.6 °F 70% 29.83 in 10.0 mi WNW 19.6 mph 28.8 mph N/A   Overcast
3:15 AM 35.6 °F 25.2 °F 26.6 °F 70% 29.84 in 10.0 mi WNW 18.4 mph 28.8 mph N/A   Overcast
3:35 AM 33.8 °F 22.5 °F 26.6 °F 75% 29.85 in 10.0 mi NW 19.6 mph 33.4 mph N/A   Overcast
3:55 AM 33.8 °F 22.5 °F 26.6 °F 75% 29.87 in 10.0 mi WNW 19.6 mph 32.2 mph N/A   Overcast
4:15 AM - - - N/A% 29.87 in 10.0 mi NW 23.0 mph 38.0 mph N/A   Overcast
4:35 AM 33.8 °F 21.9 °F 24.8 °F 70% 29.90 in 10.0 mi WNW 21.9 mph 28.8 mph N/A   Overcast
4:55 AM 33.8 °F 22.5 °F 24.8 °F 70% 29.91 in 10.0 mi WNW 19.6 mph 27.6 mph N/A   Overcast
5:15 AM 33.8 °F 21.9 °F 24.8 °F 70% 29.93 in 10.0 mi NW 21.9 mph 32.2 mph N/A   Overcast
5:35 AM 33.8 °F 22.2 °F 23.0 °F 65% 29.94 in 10.0 mi NW 20.7 mph 33.4 mph N/A   Overcast
5:55 AM 33.8 °F 21.0 °F 23.0 °F 65% 29.95 in 10.0 mi NW 25.3 mph 34.5 mph N/A   Overcast
6:15 AM 33.8 °F 21.9 °F 23.0 °F 65% 29.97 in 10.0 mi WNW 21.9 mph 28.8 mph N/A   Overcast
6:35 AM 33.8 °F 22.2 °F 23.0 °F 65% 29.98 in 10.0 mi WNW 20.7 mph 29.9 mph N/A   Overcast
6:55 AM 33.8 °F 21.9 °F 23.0 °F 65% 29.99 in 10.0 mi WNW 21.9 mph 31.1 mph N/A   Overcast
7:15 AM 32.0 °F 20.5 °F 23.0 °F 69% 30.01 in 10.0 mi WNW 18.4 mph 28.8 mph N/A   Overcast
7:35 AM 32.0 °F 19.8 °F 21.2 °F 64% 30.02 in 10.0 mi NW 20.7 mph 29.9 mph N/A   Overcast
7:55 AM 32.0 °F 19.8 °F 21.2 °F 64% 30.03 in 10.0 mi WNW 20.7 mph 28.8 mph N/A   Overcast
8:15 AM 32.0 °F 19.5 °F 21.2 °F 64% 30.04 in 10.0 mi NW 21.9 mph 31.1 mph N/A   Overcast
8:35 AM 30.2 °F 18.9 °F 21.2 °F 69% 30.05 in 10.0 mi WNW 16.1 mph 27.6 mph N/A   Overcast
8:55 AM 30.2 °F 18.5 °F 21.2 °F 69% 30.06 in 10.0 mi NW 17.3 mph 28.8 mph N/A   Overcast
9:15 AM 32.0 °F 19.2 °F 21.2 °F 64% 30.08 in 10.0 mi NW 23.0 mph 31.1 mph N/A   Overcast
9:35 AM 32.0 °F 19.2 °F 23.0 °F 69% 30.09 in 10.0 mi NW 23.0 mph 28.8 mph N/A   Overcast
9:55 AM 32.0 °F 19.8 °F 23.0 °F 69% 30.10 in 10.0 mi NW 20.7 mph 25.3 mph N/A   Overcast
10:15 AM 32.0 °F 20.8 °F 23.0 °F 69% 30.11 in 10.0 mi NW 17.3 mph 21.9 mph N/A   Overcast
10:35 AM 32.0 °F 20.1 °F 23.0 °F 69% 30.12 in 10.0 mi WNW 19.6 mph 24.2 mph N/A   Overcast
10:55 AM 32.0 °F 19.8 °F 23.0 °F 69% 30.12 in 10.0 mi NW 20.7 mph 31.1 mph N/A   Overcast
11:15 AM 33.8 °F 23.2 °F 23.0 °F 65% 30.13 in 10.0 mi NW 17.3 mph 26.5 mph N/A   Overcast
11:35 AM 33.8 °F 22.5 °F 23.0 °F 65% 30.14 in 10.0 mi WNW 19.6 mph 28.8 mph N/A   Overcast
11:55 AM 33.8 °F 22.5 °F 23.0 °F 65% 30.14 in 10.0 mi NW 19.6 mph 25.3 mph N/A   Overcast
12:15 PM 32.0 °F 21.6 °F 23.0 °F 69% 30.15 in 10.0 mi WNW 15.0 mph 27.6 mph N/A   Overcast
12:35 PM 33.8 °F 22.5 °F 21.2 °F 60% 30.15 in 10.0 mi NW 19.6 mph 26.5 mph N/A   Overcast
12:55 PM 33.8 °F 23.9 °F 23.0 °F 65% 30.15 in 10.0 mi WNW 15.0 mph 23.0 mph N/A   Overcast
1:15 PM 33.8 °F 23.2 °F 23.0 °F 65% 30.16 in 10.0 mi West 17.3 mph 23.0 mph N/A   Overcast
1:35 PM 33.8 °F 22.8 °F 21.2 °F 60% 30.17 in 10.0 mi WNW 18.4 mph 24.2 mph N/A   Overcast
1:55 PM 33.8 °F 22.8 °F 21.2 °F 60% 30.18 in 10.0 mi WNW 18.4 mph 25.3 mph N/A   Overcast
2:15 PM 33.8 °F 23.5 °F 21.2 °F 60% 30.19 in 10.0 mi WNW 16.1 mph 23.0 mph N/A   Overcast
2:35 PM 33.8 °F 22.8 °F 21.2 °F 60% 30.19 in 10.0 mi WNW 18.4 mph 26.5 mph N/A   Overcast
2:55 PM 33.8 °F 23.5 °F 21.2 °F 60% 30.18 in 10.0 mi NW 16.1 mph 24.2 mph N/A   Mostly Cloudy
3:15 PM 35.6 °F 25.9 °F 21.2 °F 56% 30.18 in 10.0 mi WNW 16.1 mph 23.0 mph N/A   Mostly Cloudy
3:35 PM 35.6 °F 26.2 °F 21.2 °F 56% 30.18 in 10.0 mi WNW 15.0 mph 23.0 mph N/A   Scattered Clouds
3:55 PM 35.6 °F 26.2 °F 21.2 °F 56% 30.19 in 10.0 mi NW 15.0 mph 24.2 mph N/A   Mostly Cloudy
4:15 PM 35.6 °F 26.2 °F 21.2 °F 56% 30.19 in 10.0 mi West 15.0 mph - N/A   Mostly Cloudy
4:35 PM 35.6 °F 26.2 °F 21.2 °F 56% 30.20 in 10.0 mi West 15.0 mph 20.7 mph N/A   Mostly Cloudy
4:55 PM 33.8 °F 24.8 °F 19.4 °F 56% 30.20 in 10.0 mi West 12.7 mph 20.7 mph N/A   Mostly Cloudy
5:15 PM 33.8 °F 24.8 °F 19.4 °F 56% 30.21 in 10.0 mi WNW 12.7 mph 21.9 mph N/A   Partly Cloudy
5:35 PM 33.8 °F 25.8 °F 19.4 °F 56% 30.21 in 10.0 mi WNW 10.4 mph - N/A   Clear
5:55 PM 33.8 °F 25.3 °F 19.4 °F 56% 30.23 in 10.0 mi WNW 11.5 mph 20.7 mph N/A   Clear
6:15 PM 32.0 °F 22.1 °F 19.4 °F 60% 30.23 in 10.0 mi WNW 13.8 mph 19.6 mph N/A   Partly Cloudy
6:35 PM 32.0 °F 24.2 °F 19.4 °F 60% 30.24 in 10.0 mi WNW 9.2 mph 18.4 mph N/A   Partly Cloudy
6:55 PM 30.2 °F 20.2 °F 19.4 °F 64% 30.25 in 10.0 mi NW 12.7 mph 17.3 mph N/A   Partly Cloudy
7:15 PM 30.2 °F 21.9 °F 19.4 °F 64% 30.25 in 10.0 mi WNW 9.2 mph - N/A   Clear
7:35 PM 30.2 °F 21.9 °F 19.4 °F 64% 30.24 in 10.0 mi WNW 9.2 mph - N/A   Clear
7:55 PM 30.2 °F 21.9 °F 19.4 °F 64% 30.25 in 10.0 mi NW 9.2 mph - N/A   Clear
8:15 PM 30.2 °F 23.4 °F 19.4 °F 64% 30.25 in 10.0 mi NW 6.9 mph - N/A   Clear
8:35 PM 28.4 °F 22.2 °F 19.4 °F 69% 30.25 in 10.0 mi NW 5.8 mph - N/A   Clear
8:55 PM 28.4 °F 20.4 °F 19.4 °F 69% 30.25 in 10.0 mi WNW 8.1 mph - N/A   Clear
9:15 PM 30.2 °F 21.9 °F 19.4 °F 64% 30.25 in 10.0 mi WNW 9.2 mph - N/A   Clear
9:35 PM 30.2 °F 24.3 °F 19.4 °F 64% 30.25 in 10.0 mi West 5.8 mph - N/A   Clear
9:55 PM 28.4 °F 22.2 °F 19.4 °F 69% 30.25 in 10.0 mi West 5.8 mph - N/A   Clear
10:15 PM 28.4 °F 20.4 °F 19.4 °F 69% 30.25 in 10.0 mi West 8.1 mph - N/A   Clear
10:35 PM 28.4 °F 21.2 °F 19.4 °F 69% 30.26 in 10.0 mi West 6.9 mph - N/A   Clear
10:55 PM 28.4 °F 20.4 °F 19.4 °F 69% 30.26 in 10.0 mi West 8.1 mph - N/A   Clear
11:15 PM 28.4 °F 21.2 °F 19.4 °F 69% 30.25 in 10.0 mi West 6.9 mph - N/A   Clear
11:35 PM 28.4 °F 21.2 °F 21.2 °F 74% 30.25 in 10.0 mi West 6.9 mph - N/A   Clear
11:55 PM 28.4 °F 24.6 °F 21.2 °F 74% 30.25 in 10.0 mi West 3.5 mph - N/A   Clear